Year,Month,Day,Hour,Minute,Value (Times are PST for temperature in C)
2015,04,05,09,47,7.80
2015,04,05,09,48,7.80
2015,04,05,09,49,7.80
2015,04,05,09,50,7.80
2015,04,05,09,51,7.80
2015,04,05,09,52,7.90
2015,04,05,09,53,8.10
2015,04,05,09,54,8.20
2015,04,05,09,55,8.20
2015,04,05,09,56,8.20
2015,04,05,09,57,8.10
2015,04,05,09,58,8.10
2015,04,05,09,59,8.10
2015,04,05,10,00,8.00
2015,04,05,10,01,8.00
2015,04,05,10,02,7.90
2015,04,05,10,03,7.90
2015,04,05,10,04,7.80
2015,04,05,10,05,7.80
2015,04,05,10,06,7.80
2015,04,05,10,07,7.80
2015,04,05,10,08,7.80
2015,04,05,10,09,7.90
2015,04,05,10,10,8.00
2015,04,05,10,11,8.00
2015,04,05,10,12,8.10
2015,04,05,10,13,8.10
2015,04,05,10,14,8.20
2015,04,05,10,15,8.30
2015,04,05,10,16,8.40
2015,04,05,10,17,8.50
2015,04,05,10,18,8.80
2015,04,05,10,19,9.00
2015,04,05,10,20,9.20
2015,04,05,10,21,9.40
2015,04,05,10,22,9.50
2015,04,05,10,23,9.70
2015,04,05,10,24,9.70
2015,04,05,10,25,9.80
2015,04,05,10,26,9.80
2015,04,05,10,27,9.80
2015,04,05,10,28,9.80
2015,04,05,10,29,9.80
2015,04,05,10,30,9.70
2015,04,05,10,31,9.70
2015,04,05,10,32,9.70
2015,04,05,10,33,9.60
2015,04,05,10,34,9.60
2015,04,05,10,35,9.60
2015,04,05,10,36,9.50
2015,04,05,10,37,9.40
2015,04,05,10,38,9.40
2015,04,05,10,39,9.40
2015,04,05,10,40,9.50
2015,04,05,10,41,9.40
2015,04,05,10,42,9.40
2015,04,05,10,43,9.40
2015,04,05,10,44,9.30
2015,04,05,10,45,9.30
2015,04,05,10,46,9.30
2015,04,05,10,47,9.30
2015,04,05,10,48,9.30
2015,04,05,10,49,9.30
2015,04,05,10,50,9.30
2015,04,05,10,51,9.30
2015,04,05,10,52,9.30
2015,04,05,10,53,9.40
2015,04,05,10,54,9.50
2015,04,05,10,55,9.50
2015,04,05,10,56,9.50
2015,04,05,10,57,9.50
2015,04,05,10,58,9.40
2015,04,05,10,59,9.40
2015,04,05,11,00,9.30
2015,04,05,11,01,9.30
2015,04,05,11,02,9.20
2015,04,05,11,03,9.30
2015,04,05,11,04,9.40
2015,04,05,11,05,9.50
2015,04,05,11,06,9.60
2015,04,05,11,07,9.80
2015,04,05,11,08,9.80
2015,04,05,11,09,9.80
2015,04,05,11,10,9.90
2015,04,05,11,11,10.00
2015,04,05,11,12,10.10
2015,04,05,11,13,10.00
2015,04,05,11,14,10.00
2015,04,05,11,15,10.00
2015,04,05,11,16,10.00
2015,04,05,11,17,10.10
2015,04,05,11,18,10.10
2015,04,05,11,19,10.10
2015,04,05,11,20,10.10
2015,04,05,11,21,10.10
2015,04,05,11,22,10.00
2015,04,05,11,23,10.00
2015,04,05,11,24,10.10
2015,04,05,11,25,10.10
2015,04,05,11,26,10.10
2015,04,05,11,27,10.20
2015,04,05,11,28,10.20
2015,04,05,11,29,10.40
2015,04,05,11,30,10.60
2015,04,05,11,31,10.70
2015,04,05,11,32,10.70
2015,04,05,11,33,10.70
2015,04,05,11,34,10.70
2015,04,05,11,35,10.70
2015,04,05,11,36,10.70
2015,04,05,11,37,10.70
2015,04,05,11,38,10.80
2015,04,05,11,39,11.00
2015,04,05,11,40,11.10
2015,04,05,11,41,11.30
2015,04,05,11,42,11.40
2015,04,05,11,43,11.40
2015,04,05,11,44,11.30
2015,04,05,11,45,11.20
2015,04,05,11,46,11.20
2015,04,05,11,47,11.30
2015,04,05,11,48,11.30
2015,04,05,11,49,11.40
2015,04,05,11,50,11.40
2015,04,05,11,51,11.50
2015,04,05,11,52,11.70
2015,04,05,11,53,11.80
2015,04,05,11,54,11.90
2015,04,05,11,55,12.00
2015,04,05,11,56,12.10
2015,04,05,11,57,12.10
2015,04,05,11,58,12.10
2015,04,05,11,59,12.00
2015,04,05,12,00,11.90
2015,04,05,12,01,11.80
2015,04,05,12,02,11.80
2015,04,05,12,03,11.80
2015,04,05,12,04,11.90
2015,04,05,12,05,11.90
2015,04,05,12,06,12.00
2015,04,05,12,07,12.00
2015,04,05,12,08,12.10
2015,04,05,12,09,12.00
2015,04,05,12,10,11.90
2015,04,05,12,11,11.80
2015,04,05,12,12,11.80
2015,04,05,12,13,11.70
2015,04,05,12,14,11.70
2015,04,05,12,15,11.60
2015,04,05,12,16,11.50
2015,04,05,12,17,11.40
2015,04,05,12,18,11.30
2015,04,05,12,19,11.20
2015,04,05,12,20,11.10
2015,04,05,12,21,11.10
2015,04,05,12,22,11.10
2015,04,05,12,23,11.10
2015,04,05,12,24,11.20
2015,04,05,12,25,11.30
2015,04,05,12,26,11.50
2015,04,05,12,27,11.60
2015,04,05,12,28,11.90
2015,04,05,12,29,12.10
2015,04,05,12,30,12.20
2015,04,05,12,31,12.20
2015,04,05,12,32,12.30
2015,04,05,12,33,12.30
2015,04,05,12,34,12.30
2015,04,05,12,35,12.30
2015,04,05,12,36,12.20
2015,04,05,12,37,12.10
2015,04,05,12,38,12.00
2015,04,05,12,39,12.00
2015,04,05,12,40,11.90
2015,04,05,12,41,11.90
2015,04,05,12,42,11.90
2015,04,05,12,43,11.80
2015,04,05,12,44,11.80
2015,04,05,12,45,11.70
2015,04,05,12,46,11.60
2015,04,05,12,47,11.50
2015,04,05,12,48,11.40
2015,04,05,12,49,11.30
2015,04,05,12,50,11.20
2015,04,05,12,51,11.10
2015,04,05,12,52,11.00
2015,04,05,12,53,10.90
2015,04,05,12,54,10.90
2015,04,05,12,55,10.90
2015,04,05,12,56,10.80
2015,04,05,12,57,10.80
2015,04,05,12,58,10.70
2015,04,05,12,59,10.70
2015,04,05,13,00,10.60
2015,04,05,13,01,10.60
2015,04,05,13,02,10.50
2015,04,05,13,03,10.50
2015,04,05,13,04,10.50
2015,04,05,13,05,10.60
2015,04,05,13,06,10.70
2015,04,05,13,07,10.90
2015,04,05,13,08,11.00
2015,04,05,13,09,11.10
2015,04,05,13,10,11.30
2015,04,05,13,11,11.40
2015,04,05,13,12,11.50
2015,04,05,13,13,11.60
2015,04,05,13,14,11.70
2015,04,05,13,15,11.80
2015,04,05,13,16,11.80
2015,04,05,13,17,11.90
2015,04,05,13,18,11.90
2015,04,05,13,19,11.90
2015,04,05,13,20,11.90
2015,04,05,13,21,12.00
2015,04,05,13,22,12.10
2015,04,05,13,23,12.10
2015,04,05,13,24,12.10
2015,04,05,13,25,12.10
2015,04,05,13,26,12.10
2015,04,05,13,27,12.20
2015,04,05,13,28,12.20
2015,04,05,13,29,12.20
2015,04,05,13,30,12.20
2015,04,05,13,31,12.20
2015,04,05,13,32,12.30
2015,04,05,13,33,12.30
2015,04,05,13,34,12.30
2015,04,05,13,35,12.30
2015,04,05,13,36,12.30
2015,04,05,13,37,12.30
2015,04,05,13,38,12.30
2015,04,05,13,39,12.30
2015,04,05,13,40,12.30
2015,04,05,13,41,12.30
2015,04,05,13,42,12.30
2015,04,05,13,43,12.30
2015,04,05,13,44,12.30
2015,04,05,13,45,12.30
2015,04,05,13,46,12.50
2015,04,05,13,47,12.60
2015,04,05,13,48,12.70
2015,04,05,13,49,12.70
2015,04,05,13,50,12.80
2015,04,05,13,51,12.80
2015,04,05,13,52,12.80
2015,04,05,13,53,12.90
2015,04,05,13,54,12.90
2015,04,05,13,55,13.00
2015,04,05,13,56,13.00
2015,04,05,13,57,13.00
2015,04,05,13,58,13.00
2015,04,05,13,59,13.00
2015,04,05,14,00,13.10
2015,04,05,14,01,13.10
2015,04,05,14,02,13.10
2015,04,05,14,03,13.00
2015,04,05,14,04,12.90
2015,04,05,14,05,12.70
2015,04,05,14,06,12.70
2015,04,05,14,07,12.60
2015,04,05,14,08,12.70
2015,04,05,14,09,12.70
2015,04,05,14,10,12.70
2015,04,05,14,11,12.70
2015,04,05,14,12,12.70
2015,04,05,14,13,12.70
2015,04,05,14,14,12.60
2015,04,05,14,15,12.60
2015,04,05,14,16,12.60
2015,04,05,14,17,12.60
2015,04,05,14,18,12.70
2015,04,05,14,19,12.80
2015,04,05,14,20,12.80
2015,04,05,14,21,12.90
2015,04,05,14,22,13.00
2015,04,05,14,23,13.10
2015,04,05,14,24,13.20
2015,04,05,14,25,13.30
2015,04,05,14,26,13.40
2015,04,05,14,27,13.50
2015,04,05,14,28,13.60
2015,04,05,14,29,13.60
2015,04,05,14,30,13.60
2015,04,05,14,31,13.50
2015,04,05,14,32,13.50
2015,04,05,14,33,13.40
2015,04,05,14,34,13.40
2015,04,05,14,35,13.30
2015,04,05,14,36,13.30
2015,04,05,14,37,13.30
2015,04,05,14,38,13.30
2015,04,05,14,39,13.40
2015,04,05,14,40,13.40
2015,04,05,14,41,13.40
2015,04,05,14,42,13.40
2015,04,05,14,43,13.30
2015,04,05,14,44,13.30
2015,04,05,14,45,13.20
2015,04,05,14,46,13.30
2015,04,05,14,47,13.20
2015,04,05,14,48,13.20
2015,04,05,14,49,13.10
2015,04,05,14,50,13.10
2015,04,05,14,51,13.00
2015,04,05,14,52,13.00
2015,04,05,14,53,13.00
2015,04,05,14,54,13.00
2015,04,05,14,55,13.00
2015,04,05,14,56,13.00
2015,04,05,14,57,13.10
2015,04,05,14,58,13.10
2015,04,05,14,59,13.20
2015,04,05,15,00,13.40
2015,04,05,15,01,13.50
2015,04,05,15,02,13.60
2015,04,05,15,03,13.60
2015,04,05,15,04,13.70
2015,04,05,15,05,13.70
2015,04,05,15,06,13.70
2015,04,05,15,07,13.60
2015,04,05,15,08,13.50
2015,04,05,15,09,13.50
2015,04,05,15,10,13.60
2015,04,05,15,11,13.60
2015,04,05,15,12,13.50
2015,04,05,15,13,13.40
2015,04,05,15,14,13.40
2015,04,05,15,15,13.50
2015,04,05,15,16,13.40
2015,04,05,15,17,13.40
2015,04,05,15,18,13.50
2015,04,05,15,19,13.60
2015,04,05,15,20,13.70
2015,04,05,15,21,13.80
2015,04,05,15,22,13.80
2015,04,05,15,23,13.80
2015,04,05,15,24,13.60
2015,04,05,15,25,13.40
2015,04,05,15,26,13.30
2015,04,05,15,27,13.30
2015,04,05,15,28,13.30
2015,04,05,15,29,13.30
2015,04,05,15,30,13.40
2015,04,05,15,31,13.50
2015,04,05,15,32,13.70
2015,04,05,15,33,13.90
2015,04,05,15,34,14.00
2015,04,05,15,35,14.00
2015,04,05,15,36,14.10
2015,04,05,15,37,14.20
2015,04,05,15,38,14.10
2015,04,05,15,39,14.10
2015,04,05,15,40,13.90
2015,04,05,15,41,13.80
2015,04,05,15,42,13.60
2015,04,05,15,43,13.60
2015,04,05,15,44,13.60
2015,04,05,15,45,13.60
2015,04,05,15,46,13.70
2015,04,05,15,47,13.70
2015,04,05,15,48,13.70
2015,04,05,15,49,13.70
2015,04,05,15,50,13.60
2015,04,05,15,51,13.60
2015,04,05,15,52,13.50
2015,04,05,15,53,13.40
2015,04,05,15,54,13.40
2015,04,05,15,55,13.40
2015,04,05,15,56,13.30
2015,04,05,15,57,13.30
2015,04,05,15,58,13.30
2015,04,05,15,59,13.30
2015,04,05,16,00,13.30
2015,04,05,16,01,13.40
2015,04,05,16,02,13.40
2015,04,05,16,03,13.40
2015,04,05,16,04,13.50
2015,04,05,16,05,13.60
2015,04,05,16,06,13.60
2015,04,05,16,07,13.70
2015,04,05,16,08,13.80
2015,04,05,16,09,13.80
2015,04,05,16,10,13.80
2015,04,05,16,11,13.70
2015,04,05,16,12,13.80
2015,04,05,16,13,13.80
2015,04,05,16,14,14.00
2015,04,05,16,15,14.10
2015,04,05,16,16,14.20
2015,04,05,16,17,14.30
2015,04,05,16,18,14.30
2015,04,05,16,19,14.30
2015,04,05,16,20,14.20
2015,04,05,16,21,14.20
2015,04,05,16,22,14.00
2015,04,05,16,23,13.90
2015,04,05,16,24,13.80
2015,04,05,16,25,13.70
2015,04,05,16,26,13.60
2015,04,05,16,27,13.50
2015,04,05,16,28,13.40
2015,04,05,16,29,13.40
2015,04,05,16,30,13.40
2015,04,05,16,31,13.40
2015,04,05,16,32,13.50
2015,04,05,16,33,13.60
2015,04,05,16,34,13.70
2015,04,05,16,35,13.70
2015,04,05,16,36,13.70
2015,04,05,16,37,13.70
2015,04,05,16,38,13.70
2015,04,05,16,39,13.70
2015,04,05,16,40,13.70
2015,04,05,16,41,13.60
2015,04,05,16,42,13.60
2015,04,05,16,43,13.70
2015,04,05,16,44,13.70
2015,04,05,16,45,13.80
2015,04,05,16,46,13.80
2015,04,05,16,47,13.80
2015,04,05,16,48,13.80
2015,04,05,16,49,13.80
2015,04,05,16,50,13.80
2015,04,05,16,51,13.90
2015,04,05,16,52,13.90
2015,04,05,16,53,13.80
2015,04,05,16,54,13.80
2015,04,05,16,55,13.70
2015,04,05,16,56,13.60
2015,04,05,16,57,13.50
2015,04,05,16,58,13.40
2015,04,05,16,59,13.30
2015,04,05,17,00,13.30
2015,04,05,17,01,13.40
2015,04,05,17,02,13.40
2015,04,05,17,03,13.40
2015,04,05,17,04,13.50
2015,04,05,17,05,13.60
2015,04,05,17,06,13.60
2015,04,05,17,07,13.50
2015,04,05,17,08,13.50
2015,04,05,17,09,13.50
2015,04,05,17,10,13.40
2015,04,05,17,11,13.40
2015,04,05,17,12,13.40
2015,04,05,17,13,13.30
2015,04,05,17,14,13.40
2015,04,05,17,15,13.40
2015,04,05,17,16,13.40
2015,04,05,17,17,13.50
2015,04,05,17,18,13.60
2015,04,05,17,19,13.60
2015,04,05,17,20,13.70
2015,04,05,17,21,13.70
2015,04,05,17,22,13.60
2015,04,05,17,23,13.60
2015,04,05,17,24,13.60
2015,04,05,17,25,13.60
2015,04,05,17,26,13.50
2015,04,05,17,27,13.40
2015,04,05,17,28,13.40
2015,04,05,17,29,13.30
2015,04,05,17,30,13.20
2015,04,05,17,31,13.20
2015,04,05,17,32,13.10
2015,04,05,17,33,13.10
2015,04,05,17,34,13.00
2015,04,05,17,35,13.00
2015,04,05,17,36,13.00
2015,04,05,17,37,12.90
2015,04,05,17,38,13.00
2015,04,05,17,39,13.00
2015,04,05,17,40,13.00
2015,04,05,17,41,13.00
2015,04,05,17,42,13.00
2015,04,05,17,43,12.90
2015,04,05,17,44,12.90
2015,04,05,17,45,12.90
2015,04,05,17,46,12.90
2015,04,05,17,47,12.90
2015,04,05,17,48,12.80
2015,04,05,17,49,12.80
2015,04,05,17,50,12.70
2015,04,05,17,51,12.70
2015,04,05,17,52,12.70
2015,04,05,17,53,12.70
2015,04,05,17,54,12.70
2015,04,05,17,55,12.80
2015,04,05,17,56,12.80
2015,04,05,17,57,12.80
2015,04,05,17,58,12.80
2015,04,05,17,59,12.80
2015,04,05,18,00,12.80
2015,04,05,18,01,12.80
2015,04,05,18,02,12.80
2015,04,05,18,03,12.80
2015,04,05,18,04,12.70
2015,04,05,18,05,12.80
2015,04,05,18,06,12.70
2015,04,05,18,07,12.70
2015,04,05,18,08,12.80
2015,04,05,18,09,12.80
2015,04,05,18,10,12.80
2015,04,05,18,11,12.80
2015,04,05,18,12,12.70
2015,04,05,18,13,12.70
2015,04,05,18,14,12.60
2015,04,05,18,15,12.50
2015,04,05,18,16,12.40
2015,04,05,18,17,12.40
2015,04,05,18,18,12.40
2015,04,05,18,19,12.40
2015,04,05,18,20,12.40
2015,04,05,18,21,12.30
2015,04,05,18,22,12.30
2015,04,05,18,23,12.30
2015,04,05,18,24,12.30
2015,04,05,18,25,12.20
2015,04,05,18,26,12.20
2015,04,05,18,27,12.10
2015,04,05,18,28,12.10
2015,04,05,18,29,12.10
2015,04,05,18,30,12.10
2015,04,05,18,31,12.00
2015,04,05,18,32,12.00
2015,04,05,18,33,11.90
2015,04,05,18,34,11.90
2015,04,05,18,35,11.90
2015,04,05,18,36,11.90
2015,04,05,18,37,11.90
2015,04,05,18,38,12.00
2015,04,05,18,39,11.90
2015,04,05,18,40,11.90
2015,04,05,18,41,11.90
2015,04,05,18,42,11.90
2015,04,05,18,43,11.90
2015,04,05,18,44,11.90
2015,04,05,18,45,11.90
2015,04,05,18,46,11.90
2015,04,05,18,47,11.90
2015,04,05,18,48,11.90
2015,04,05,18,49,11.90
2015,04,05,18,50,11.90
2015,04,05,18,51,11.90
2015,04,05,18,52,11.90
2015,04,05,18,53,11.80
2015,04,05,18,54,11.80
2015,04,05,18,55,11.80
2015,04,05,18,56,11.80
2015,04,05,18,57,11.70
2015,04,05,18,58,11.70
2015,04,05,18,59,11.70
2015,04,05,19,00,11.70
2015,04,05,19,01,11.70
2015,04,05,19,02,11.70
2015,04,05,19,03,11.70
2015,04,05,19,04,11.70
2015,04,05,19,05,11.70
2015,04,05,19,06,11.70
2015,04,05,19,07,11.70
2015,04,05,19,08,11.70
2015,04,05,19,09,11.70
2015,04,05,19,10,11.70
